Location: Erlenbrunn
(49.1717°N, 7.6142°E)
Time: 18:23:35
(UTC+00:00)

Cosmos 2150 Rocket - Visible Passes

Search period start: 16 April 2021 00:00
Search period end: 26 April 2021 00:00
Orbit: 749 x 808 km, 74.0° (Epoch: 15 April)

Date Brightness Start Highest point End Pass type
(mag) Time Alt. Az. Time Alt. Az. Time Alt. Az.
16 Apr 5.7 03:30:13 10° SSE 03:35:05 34° ESE 03:39:58 10° NE visible
17 Apr 6.3 02:57:09 10° SSE 03:01:20 23° E 03:05:32 10° NE visible
18 Apr 6.6 02:24:37 10° SE 02:27:40 15° E 02:30:43 10° ENE visible
19 Apr 4.6 03:29:52 10° S 03:35:14 63° ESE 03:40:37 10° NNE visible
20 Apr 5.2 02:56:18 10° S 03:01:23 42° ESE 03:06:29 10° NE visible
21 Apr 5.8 02:23:02 10° SSE 02:27:37 28° E 02:32:09 10° NE visible
22 Apr 6.3 01:50:13 10° SE 01:53:53 19° E 01:57:34 10° NE visible
22 Apr 4.1 03:30:08 10° SSW 03:35:35 74° WNW 03:41:01 10° NNE visible
23 Apr 6.6 01:18:16 10° ESE 01:20:15 12° E 01:22:15 10° ENE visible
23 Apr 4.2 02:56:23 11° SSW 03:01:36 76° ESE 03:07:01 10° NNE visible
24 Apr 4.8 02:23:21 15° S 02:27:42 51° ESE 02:32:56 10° NNE visible
25 Apr 5.4 01:50:16 16° SSE 01:53:53 34° ESE 01:58:42 10° NE visible
25 Apr 4.7 03:30:55 10° SW 03:36:04 42° WNW 03:41:12 10° NNE visible
